Regional Weather Roundup
Issued by NWS Sterling, VA

Home | Current Version | Previous Version | Text Only | Print | Product List | Glossary Off
Versions: 1 2 3 4 5 6 7 8 9 10 11 12 13 14 15 16 17 18 19 20 21 22 23 24 25 26 27 28 29 30 31 32 33 34 35 36 37 38 39 40 41 42 43 44 45 46 47 48 49 50

000
ASUS41 KLWX 230210
RWRLWX

REGIONAL WEATHER ROUNDUP
NATIONAL WEATHER SERVICE BALTIMORE MD/WASHINGTON DC
1000 PM EDT FRI MAY 22 2015

Note: "FAIR" indicates few or no clouds below 12,000 feet
with no significant weather and/or obstructions to visibility.
 TC=TEMPERATURE CELSIUS

 * =Non NWS site. Station does not report precipitation (e.g. rain,
    snow, etc.), thunder, or fog.

DCZ001-MDZ009-015-VAZ040>042-051-053>054-230300-
WASHINGTON METRO

CITY           SKY/WX    TMP DP  RH WIND       PRES   REMARKS
WASHINGTON NAT CLEAR     70  42  36 W7        30.18R
DULLES         PTCLDY    63  43  48 W9        30.18R
ANDREWS AFB    CLEAR     68  42  40 W8        30.17R
FT BELVOIR     CLEAR     66  42  42 W7        30.18R
QUANTICO       CLEAR     62  53  72 NW6       30.20R
COLLEGE PARK*  CLEAR     68  41  37 W3        30.17R
LEESBURG*      CLEAR     64  46  52 W9        30.20R
GAITHERSBURG*  CLEAR     63  43  48 W5        30.22R

$$

MDZ006>007-011-014-230300-
BALTIMORE METRO

CITY           SKY/WX    TMP DP  RH WIND       PRES   REMARKS
BWI AIRPORT    PTCLDY    63  45  51 NW6       30.16R
MD SCIENCE CTR   N/A     69  43  38 MISG      30.16R
MARTIN STATE   CLEAR     66  45  45 W7        30.17R
ANNAPOLIS      CLEAR     68  42  38 W7        30.15R
FORT MEADE*    CLEAR     57  50  77 W6        30.19R

$$

MDZ012-015-019>023-230300-
MARYLAND EASTERN SHORE

CITY           SKY/WX    TMP DP  RH WIND       PRES   REMARKS
OCEAN CITY     CLEAR     63  51  65 SW8       30.16R
SALISBURY      CLEAR     57  51  80 CALM      30.16R
BAY BRIDGE AP*   N/A    N/A N/A N/A W9        30.16R
CAMBRIDGE*     CLEAR     64  46  52 SW6       30.16R
EASTON*        CLEAR     66  50  55 W3        30.19

$$

MDZ017>025-230300-
SOUTHERN MARYLAND

CITY           SKY/WX    TMP DP  RH WIND       PRES   REMARKS
PATUXENT RIVER PTCLDY    63  48  58 SW7       30.17R
ST INIGOES     CLEAR     66  49  54 W6        30.17R
LEONARDTOWN*   CLEAR     59  50  72 CALM      30.20R

$$

MDZ003>005-230300-
NORTH CENTRAL MARYLAND

CITY           SKY/WX    TMP DP  RH WIND       PRES   REMARKS
FREDERICK*     CLEAR     63  43  48 N10       30.22R
HAGERSTOWN APT CLEAR     62  26  25 NW14      30.19R
WESTMINSTER*   CLEAR     64  19  17 NW12G21   30.18R

$$

MDZ501>502-230300-
WESTERN MARYLAND

CITY           SKY/WX    TMP DP  RH WIND       PRES   REMARKS
OAKLAND*       CLEAR     48  34  57 NW6       30.27R
CUMBERLAND*    CLEAR     63  30  29 NW9G23    30.28R

$$

VAZ025>031-230300-
SHENANDOAH VALLEY

CITY           SKY/WX    TMP DP  RH WIND       PRES   REMARKS
WINCHESTER*    PTCLDY    64  37  36 W8        30.21R
FRONT ROYAL*   MOCLDY    64  45  48 W18G29    30.22R
LURAY*         MOCLDY    63  46  55 CALM      30.22R
NEW MARKET*    MOCLDY    56  47  70 CALM      30.22R
STAUNTON*      PTCLDY    62  40  43 W5        30.25R
WAYNESBORO*    MOCLDY    61  40  44 W6        30.24R

$$

WVZ021-048>050-054>055-230300-
EASTERN WEST VIRGINIA PANHANDLE

CITY           SKY/WX    TMP DP  RH WIND       PRES   REMARKS
MARTINSBURG    CLEAR     63  43  48 NW6       30.20R
PETERSBURG*    CLOUDY    60  43  54 CALM      30.25R

$$

VAZ036>039-050-230300-
CENTRAL FOOTHILLS

CITY           SKY/WX    TMP DP  RH WIND       PRES   REMARKS
CHARLOTTESVILL CLEAR     65  40  39 NW5       30.20R
CULPEPER*      CLEAR     54  45  70 CALM      30.20R
ORANGE*        FAIR      59  50  72 CALM      30.22R
GORDONSVILLE*  FAIR      55  51  87 SW3       30.20R
WARRENTON*     FAIR      55  51  86 CALM      30.19R

$$

VAZ055>057-230300-
NORTH AND CENTRAL PIEDMONT

CITY           SKY/WX    TMP DP  RH WIND       PRES   REMARKS
FREDERICKSBRG* PTCLDY    64  53  67 W3        30.18R
STAFFORD*      CLEAR     55  52  88 NW3       30.23R

$$

NCZ024-NYZ072-PAZ021-071-VAZ022-071-230300-
OTHER REGIONAL OBSERVATIONS

CITY           SKY/WX    TMP DP  RH WIND       PRES   REMARKS
NEW YORK CITY  PTCLDY    66  34  30 N10       30.11R
PHILADELPHIA   CLEAR     69  35  28 W10       30.12R
PITTSBURGH     PTCLDY    54  31  41 N9        30.29R
ROANOKE        CLEAR     61  40  45 NW6       30.28R
RICHMOND       FAIR      62  47  57 S5        30.20R
RALEIGH        PTCLDY    59  48  67 CALM      30.25R

$$

ANZ530>537-230300-
MARINE OBSERVATIONS

STATION/POSITION TIME  TEMP    WIND        PRES
                       AIR SEA DIR/SP/G
                 (UTC) (F)     (DEG/KT/KT) (MB)
THOMAS PT LIGHT  0200   70 65  290/ 10/ 11 1021.9R
BALT KEY BRIDGE  0100   69     260/  7/  7 1019.7R
LEWISETTA        0100   68 70              1021.0R
SOLOMONS ISLAND  0100      68                N/A
PINEY POINT      0100          240/  8/  9   N/A

$$



USA.gov is the U.S. government's official web portal to all federal, state and local government web resources and services.